Location: Heidgraben
(53.7081°N, 9.6576°E)
Time: 06:54:29
(UTC+00:00)

Lacrosse 5 rocket - Pass Details

Date: 05 July 2020
Orbit: 465 x 631 km, 57.0° (Epoch: 14 August)

Event Time Altitude Azimuth Distance (km) Brightness Sun altitude
Rises 21:14:13 0° 275° (W) 2,794 5.5 -8.5°
Reaches altitude 10° 21:16:35 10° 281° (W) 1,866 4.6 -8.7°
Maximum altitude 21:20:43 52° 358° (N) 679 2.2 -9.0°
Drops below altitude 10° 21:24:38 10° 76° (ENE) 1,764 3.8 -9.2°
Sets 21:26:48 0° 82° (E) 2,623 4.6 -9.4°
